Location: Orange Harbor Mobile Home Park
(26.6923°N, 81.7937°W)
Time: 07:45:15
(UTC+00:00)

Cosmos 1733 Rocket - Pass Details

Date: 19 September 2020
Orbit: 602 x 629 km, 82.5° (Epoch: 29 October)

Event Time Altitude Azimuth Distance (km) Brightness Sun altitude
Rises 10:14:57 0° 359° (N) 2,868 6.6 -14.1°
Reaches altitude 10° 10:17:13 10° 4° (N) 1,958 5.8 -13.6°
Maximum altitude 10:21:29 58° 83° (E) 706 3.7 -12.7°
Drops below altitude 10° 10:25:42 10° 163° (SSE) 1,939 5.7 -11.7°
Sets 10:27:55 0° 167° (SSE) 2,837 6.5 -11.2°
